Terug naar catalogus

NOAA 17 DEB

ActiefPO
NORAD 48754·DEBRIS·🇺🇸 United States

Gelanceerd Jun 24, 2002 vanaf Vandenberg Space Force Base

Loading…

Volgende Passages (komende 24 uur)

TLE

VersSource: Space-Track

Epoch: Sep 13, 2026, 03:10 UTC

1 48754U 02032CP  26256.13202908  .00010591  00000-0  15941-2 0  9999
2 48754  98.9330 326.3708 0010572 241.6870 118.3270 14.74614298287537

Volg NOAA 17 DEB in realtime met AllMySat

Download on the App Store